EW6230 Weather Reports


time (UTC)temp
F
wind
direction
speed
knots
gust
knots
rain 1hr
in
rain 24hr
in
rain mn
in
humidity
%
barometer
mb
20260503030013 68 77 0.0 0.0 0.00 0.00 0.00 43 1010.4
20260503024508 69 77 0.0 0.0 0.00 0.00 0.00 40 1010.4
20260503023003 70 74 0.0 0.0 0.00 0.00 0.00 38 1010.4
20260503021600 70 75 0.0 0.0 0.00 0.00 0.00 37 1010.5
20260503020055 71 75 0.0 0.0 0.00 0.00 0.00 36 1010.6
20260503014600 71 75 0.0 0.0 0.00 0.00 0.00 35 1010.6
20260503013048 71 75 0.0 0.0 0.00 0.00 0.00 38 1010.8
20260503011542 72 75 0.0 0.0 0.00 0.00 0.00 38 1010.9
20260503010038 72 75 0.0 0.0 0.00 0.00 0.00 38 1011.0
20260503004536 73 74 0.0 0.0 0.00 0.00 0.00 37 1010.9
20260503003042 75 74 0.0 0.0 0.00 0.00 0.00 36 1011.0
20260503001524 76 75 0.0 0.0 0.00 0.00 0.00 36 1011.0
20260503000024 78 63 0.0 0.0 0.00 0.00 0.00 34 1011.1
20260502234514 79 79 0.0 0.0 0.00 0.00 0.00 33 1011.1
20260502233026 78 80 0.0 0.0 0.00 0.00 0.00 35 1011.4
20260502231505 77 87 0.0 0.0 0.00 0.00 0.00 35 1011.6
20260502230104 77 165 0.0 0.0 0.00 0.00 0.00 35 1011.8
20260502224557 76 162 0.0 0.0 0.00 0.00 0.00 35 1012.2
20260502223052 76 95 0.0 0.0 0.00 0.00 0.00 34 1012.5
20260502221547 77 136 0.0 0.0 0.00 0.00 0.00 35 1012.8
20260502220042 75 155 0.0 0.0 0.00 0.00 0.00 40 1012.9
20260502214552 75 17 0.0 0.0 0.00 0.00 0.00 42 1013.1
20260502213034 74 87 0.0 0.0 0.00 0.00 0.00 42 1013.1
20260502211532 73 86 0.0 0.0 0.00 0.00 0.00 41 1013.3
20260502210031 74 30 0.0 0.0 0.00 0.00 0.00 46 1013.2
20260502204520 73 160 0.0 0.0 0.00 0.00 0.00 45 1013.4
20260502203015 74 26 0.0 0.0 0.00 0.00 0.00 43 1013.6
20260502201513 74 89 0.0 0.0 0.00 0.00 0.00 43 1013.7
20260502200006 72 332 0.0 0.0 0.00 0.00 0.00 44 1013.9
20260502194505 72 100 0.0 0.0 0.00 0.00 0.00 48 1014.0
20260502193059 71 80 0.0 0.0 0.00 0.00 0.00 47 1014.1
20260502191603 70 20 0.0 0.0 0.00 0.00 0.00 53 1014.2
20260502190052 69 83 0.0 0.0 0.00 0.00 0.00 50 1014.4
20260502184550 70 314 0.0 0.0 0.00 0.00 0.00 50 1014.4
20260502183041 69 91 0.0 0.0 0.00 0.00 0.00 52 1014.6
20260502181543 70 82 0.0 0.0 0.00 0.00 0.00 52 1014.6
20260502163015 61 243 0.0 0.0 0.00 0.00 0.00 52 1015.0
20260502161607 60 243 0.0 0.0 0.00 0.00 0.00 43 1014.9
20260502151553 57 243 0.0 0.0 0.00 0.00 0.00 1 1014.5
20260502123104 47 243 0.0 0.0 0.00 0.00 0.00 1 1013.7
20260502121550 47 243 0.0 0.0 0.00 0.00 0.00 1 1013.6
20260502114542 47 243 0.0 0.0 0.00 0.00 0.00 1 1013.3
20260502113037 47 243 0.0 0.0 0.00 0.00 0.00 1 1013.2
20260502111532 47 243 0.0 0.0 0.00 0.00 0.00 1 1013.4
20260502110028 47 243 0.0 0.0 0.00 0.00 0.00 1 1013.1
20260502104528 47 243 0.0 0.0 0.00 0.00 0.00 1 1013.0
20260502103019 48 240 0.0 0.0 0.00 0.00 0.00 1 1012.9
20260502101514 48 240 0.0 0.0 0.00 0.00 0.00 1 1013.0
20260502090111 49 240 0.0 0.0 0.00 0.00 0.00 1 1013.2
20260502071521 51 186 0.0 0.0 0.00 0.00 0.00 1 1013.0
20260502070017 50 154 0.0 0.0 0.00 0.00 0.00 1 1013.1
20260502064512 51 154 0.0 0.0 0.00 0.00 0.00 1 1013.1
20260502063008 51 154 0.0 0.0 0.00 0.00 0.00 1 1013.0
20260502061502 51 154 0.0 0.0 0.00 0.00 0.00 1 1013.0
20260502060059 52 154 0.0 0.0 0.00 0.00 0.00 1 1012.9
20260502054555 53 154 0.0 0.0 0.00 0.00 0.00 1 1012.8
20260502053101 53 154 0.0 0.0 0.00 0.00 0.00 1 1012.8
20260502051546 53 154 0.0 0.0 0.00 0.00 0.00 1 1012.7
20260502050041 53 154 0.0 0.0 0.00 0.00 0.00 1 1012.7
20260502044537 53 154 0.0 0.0 0.00 0.00 0.00 1 1012.6
20260502043033 53 154 0.0 0.0 0.00 0.00 0.00 1 1012.5
20260502041531 54 154 0.0 0.0 0.00 0.00 0.00 8 1012.4
20260502040023 54 154 0.0 0.0 0.00 0.00 0.00 13 1012.4
20260502034518 55 105 0.0 0.0 0.00 0.00 0.00 20 1012.3
20260502033023 55 104 0.0 0.0 0.00 0.00 0.00 26 1012.1
20260502031513 56 105 0.0 0.0 0.00 0.00 0.00 31 1012.0